"Pseudo-MPEC" for C0YZV42

Created 2019 Sep 21 8:07:04 UT using Find_Orb

Click here for an explanation of pseudo-MPECs

 
 Astrometry: 
     C0YZV42  C2019 09 07.34341 23 39 08.41 -12 12 10.9    ~9797 21.0 GVNEOCPG96
     C0YZV42  C2019 09 07.34804 23 39 08.51 -12 12 15.8    ~9797 20.9 GVNEOCPG96
     C0YZV42  C2019 09 07.35268 23 39 08.65 -12 12 20.2    ~9797 20.4 GVNEOCPG96
     C0YZV42  C2019 09 07.35730 23 39 08.78 -12 12 25.2    ~9797 21.0 GVNEOCPG96

Station data:
(G96) Mt. Lemmon Survey  (N32.442754 W110.788720)  US/Arizona.  Observers T.
   A. Pruyne, B. M. Africano, E. J. Christensen, G. A. Farneth, D. C. Fuls,
   A. R. Gibbs, A. D. Grauer, H. Groeller, J. A. Johnson, R. A. Kowalski, S.
   M. Larson, G. J. Leonard, D. Rankin, R. L. Seaman, F. C. Shelly. 1.5-m
   reflector + 10K CCD.

Orbital elements:  C0YZV42
   Perihelion 2019 Sep 21.400406 +/- 47.6 TT =  9:36:35 (JD 2458747.900406)
Epoch 2019 Sep  7.0 TT = JDT 2458733.5   Earth MOID: 0.3835   Ma: 0.0150
M 355.89795992 +/- 18               (J2000 ecliptic)          AutoNEOCP
n   0.28485585 +/- 0.256            Peri.  210.62133 +/- 70
a   2.28763086 +/- 1.37             Node   145.42748 +/- 52
e   0.3955460 +/- 0.251             Incl.    7.19972 +/- 4.2
P   3.46                   H 21.9   G  0.15   U 11.8  SR
q 1.38276741 +/- 0.368    Q 3.19249431 +/- 1398
From 4 observations 2019 Sept. 7 (20.0 min); mean residual 0".13
Residuals in arcseconds: 
190907 G96  .15+  .03+    190907 G96  .00   .20+    
190907 G96  .22-  .14-    190907 G96  .07+  .09-    

Ephemerides (geocentric):
Date (UTC) HH   RA              Dec         delta   r     elong  mag " sig PA
---- -- -- --  -------------   -----------  ------ ------ -----  --- ---- ---
2019 09 21 08  23 46 28.350   -15 47 25.89  .38816 1.3828 165.0 21.3  51d 177
2019 09 21 09  23 46 29.577   -15 47 57.93  .38820 1.3828 165.0 21.3  51d 177
2019 09 21 10  23 46 30.803   -15 48 29.92  .38825 1.3828 165.0 21.3  51d 177
2019 09 21 11  23 46 32.030   -15 49 01.86  .38830 1.3828 164.9 21.3  51d 177
2019 09 21 12  23 46 33.257   -15 49 33.75  .38835 1.3828 164.9 21.3  51d 177
2019 09 21 13  23 46 34.484   -15 50 05.58  .38840 1.3828 164.9 21.3  51d 177
2019 09 21 14  23 46 35.710   -15 50 37.37  .38845 1.3828 164.9 21.3  51d 177
2019 09 21 15  23 46 36.937   -15 51 09.10  .38849 1.3828 164.8 21.3  51d 177
2019 09 21 16  23 46 38.164   -15 51 40.79  .38854 1.3828 164.8 21.3  51d 177
2019 09 21 17  23 46 39.391   -15 52 12.42  .38859 1.3828 164.8 21.3  51d 177
2019 09 21 18  23 46 40.617   -15 52 44.00  .38864 1.3828 164.8 21.3  51d 177
2019 09 21 19  23 46 41.844   -15 53 15.53  .38869 1.3828 164.7 21.3  51d 177
2019 09 21 20  23 46 43.071   -15 53 47.00  .38874 1.3828 164.7 21.3  52d 177
2019 09 21 21  23 46 44.298   -15 54 18.43  .38879 1.3828 164.7 21.3  52d 177
2019 09 21 22  23 46 45.525   -15 54 49.80  .38884 1.3828 164.6 21.3  52d 177
2019 09 21 23  23 46 46.752   -15 55 21.12  .38889 1.3828 164.6 21.3  52d 177
2019 09 22 00  23 46 47.979   -15 55 52.39  .38894 1.3828 164.6 21.3  52d 177
2019 09 22 01  23 46 49.206   -15 56 23.61  .38900 1.3828 164.6 21.3  52d 177
2019 09 22 02  23 46 50.434   -15 56 54.77  .38905 1.3828 164.5 21.3  52d 177
2019 09 22 03  23 46 51.661   -15 57 25.89  .38910 1.3828 164.5 21.3  52d 177
2019 09 22 04  23 46 52.888   -15 57 56.95  .38915 1.3828 164.5 21.3  52d 177
2019 09 22 05  23 46 54.116   -15 58 27.95  .38920 1.3828 164.4 21.3  52d 177
2019 09 22 06  23 46 55.343   -15 58 58.91  .38926 1.3828 164.4 21.3  52d 177
2019 09 22 07  23 46 56.571   -15 59 29.81  .38931 1.3828 164.4 21.3  52d 177
2019 09 22 08  23 46 57.798   -16 00 00.66  .38936 1.3828 164.4 21.3  52d 177
2019 09 22 09  23 46 59.026   -16 00 31.46  .38941 1.3828 164.3 21.3  52d 177
2019 09 22 10  23 47 00.254   -16 01 02.20  .38947 1.3828 164.3 21.3  52d 177
2019 09 22 11  23 47 01.482   -16 01 32.89  .38952 1.3828 164.3 21.3  53d 177
2019 09 22 12  23 47 02.710   -16 02 03.53  .38958 1.3828 164.2 21.3  53d 177
2019 09 22 13  23 47 03.938   -16 02 34.11  .38963 1.3828 164.2 21.3  53d 177
2019 09 22 14  23 47 05.167   -16 03 04.65  .38968 1.3828 164.2 21.3  53d 177
2019 09 22 15  23 47 06.395   -16 03 35.12  .38974 1.3828 164.1 21.3  53d 178
2019 09 22 16  23 47 07.624   -16 04 05.55  .38979 1.3828 164.1 21.3  53d 178
2019 09 22 17  23 47 08.853   -16 04 35.92  .38985 1.3828 164.1 21.3  53d 178
2019 09 22 18  23 47 10.082   -16 05 06.24  .38990 1.3828 164.1 21.3  53d 178
2019 09 22 19  23 47 11.311   -16 05 36.50  .38996 1.3828 164.0 21.3  53d 178
2019 09 22 20  23 47 12.540   -16 06 06.71  .39002 1.3828 164.0 21.3  53d 178
2019 09 22 21  23 47 13.769   -16 06 36.86  .39007 1.3828 164.0 21.3  53d 178
2019 09 22 22  23 47 14.999   -16 07 06.97  .39013 1.3828 163.9 21.3  53d 178
2019 09 22 23  23 47 16.228   -16 07 37.01  .39018 1.3828 163.9 21.3  53d 178
2019 09 23 00  23 47 17.458   -16 08 07.01  .39024 1.3828 163.9 21.3  54d 178
2019 09 23 01  23 47 18.688   -16 08 36.95  .39030 1.3828 163.9 21.3  54d 178
2019 09 23 02  23 47 19.919   -16 09 06.83  .39036 1.3829 163.8 21.3  54d 178
2019 09 23 03  23 47 21.149   -16 09 36.66  .39041 1.3829 163.8 21.3  54d 178
2019 09 23 04  23 47 22.380   -16 10 06.44  .39047 1.3829 163.8 21.3  54d 178
2019 09 23 05  23 47 23.610   -16 10 36.16  .39053 1.3829 163.7 21.3  54d 178
2019 09 23 06  23 47 24.841   -16 11 05.83  .39059 1.3829 163.7 21.3  54d 178
2019 09 23 07  23 47 26.073   -16 11 35.44  .39065 1.3829 163.7 21.3  54d 178